Regional Weather Roundup
Issued by NWS Wilmington, NC

Home | Current Version | Previous Version | Text Only | Print | Product List | Glossary On
Versions: 1 2 3 4 5 6 7 8 9 10 11 12 13 14 15 16 17 18 19 20 21 22 23 24 25 26 27 28
000
ASUS42 KILM 232313
RWRILM
RWRILM
REGIONAL HOURLY WEATHER ROUNDUP
NATIONAL WEATHER SERVICE WILMINGTON NC
700 PM EDT THU MAR 23 2017

NOTE: "FAIR" INDICATES FEW OR NO CLOUDS BELOW 12,000 FEET WITH NO
SIGNIFICANT WEATHER AND/OR OBSTRUCTIONS TO VISIBILITY.

...............WFO WILMINGTON COUNTY WARNING AREA...............

......COASTAL NC AND SC COUNTIES......

CITY           SKY/WX    TMP DP  RH WIND       PRES   REMARKS
WILMINGTON     CLEAR     49  33  54 E10       30.55S
N MYRTLE BEACH CLEAR     51  34  52 E13G18    30.52S
MYRTLE BEACH   CLEAR     52  32  46 E10       30.53S

......INLAND NC AND SC COUNTIES.......

CITY           SKY/WX    TMP DP  RH WIND       PRES   REMARKS
LUMBERTON      CLEAR     57  24  28 E6        30.50S
ELIZABETHTOWN  CLEAR     56  25  30 CALM      30.51S
WHITEVILLE     CLEAR     57  21  24 E5        30.50F
FLORENCE       CLEAR     58  27  30 E9        30.49S
DARLINGTON     CLEAR     58  30  34 E7        30.50R
KINGSTREE      FAIR      57  32  38 E9        30.48S
HARTSVILLE     FAIR      55  27  33 E5        30.48S
BENNETTSVILLE  FAIR      55  32  41 E6        30.50S
CONWAY         FAIR      52  30  43 E6        30.52S HAZE
GEORGETOWN     FAIR      52  36  54 E9        30.52S
MARION         FAIR      54  28  37 E6        30.50R

....................REST OF NORTH CAROLINA......................

.........EASTERN NC.........

CITY           SKY/WX    TMP DP  RH WIND       PRES   REMARKS
CAPE HATTERAS  CLEAR     42  28  57 NE8       30.58S
JACKSONVILLE   CLEAR     52  24  33 E5        30.54S
MOREHEAD CITY  CLEAR     45  30  55 NE6       30.57R
KENANSVILLE    CLEAR     52  23  32 E3        30.53S
NEW BERN       CLEAR     47  33  58 SE9       30.57R
ELIZABETH CITY CLEAR     40  24  53 E8        30.59R WCI  34

.........CENTRAL NC.........

CITY           SKY/WX    TMP DP  RH WIND       PRES   REMARKS
RALEIGH DURHAM PTCLDY    53  17  24 S7        30.51S
ROCKY MOUNT    CLEAR     51  18  27 CALM      30.54S
ROANOKE RAPIDS NOT AVBL
FAYETTEVILLE   CLEAR     55  23  28 E6        30.51S
HOFFMAN        CLEAR     55  25  31 SE6       30.49S

.........WESTERN NC.........

CITY           SKY/WX    TMP DP  RH WIND       PRES   REMARKS
CHARLOTTE      PTCLDY    57  20  23 SE8       30.47S
GREENSBORO     PTCLDY    53  18  25 S7        30.46F
HICKORY        NOT AVBL
BOONE          NOT AVBL
ASHEVILLE      NOT AVBL

.....................REST OF SOUTH CAROLINA.....................

.........EASTERN SC.........

CITY           SKY/WX    TMP DP  RH WIND       PRES   REMARKS
CHARLESTON     CLEAR     56  41  57 E14       30.49R
BEAUFORT MCAS  CLEAR     60  48  64 E15       30.46R
HILTON HEAD    CLEAR     57  48  72 NE9G17    30.47S

.........CENTRAL SC.........

CITY           SKY/WX    TMP DP  RH WIND       PRES   REMARKS
COLUMBIA       PTCLDY    62  25  24 E8        30.45S
ORANGEBURG     CLEAR     61  30  31 E7        30.46S
SUMTER SHAW    CLEAR     60  25  26 E8        30.45S

.........WESTERN SC.........

CITY           SKY/WX    TMP DP  RH WIND       PRES   REMARKS
GREENVILLE     NOT AVBL
ROCK HILL      CLEAR     58  23  26 SE5       30.46S
ANDERSON       PTCLDY    59  31  34 SE6       30.43S
CLEMSON        NOT AVBL
GREENWOOD      CLEAR     58  29  33 SE7       30.45S


...................COASTAL AND OFFSHORE REPORTS..................

................LOCAL PIERS AND NC RESERVE................


STATION/POSITION TIME  SKY/WX   TEMP    WIND        PRES    VSBY
                                AIR SEA DIR/SP/G
                 (UTC)          (F)     (DEG/KT/KT) (MB)    (MI)
JOHNY MRCER PIER 2248            50 57   90/ 14/ 16 1033.4S
NC RESRV MASNBRO 2145            51     120/  4     1033.0
OCEAN CREST PIER NOT AVBL
SPRINGMAID  PIER 2248                               1032.8F


................COASTAL AND OFFSHORE BUOYS................


STATION/POSITION TIME  SKY/WX   TEMP    WIND        PRES    VSBY
                                AIR SEA DIR/SP/G
                 (UTC)          (F)     (DEG/KT/KT) (MB)    (MI)
DIMNDSHOAL 41025 2250            47 73   20/ 14/ 17 1035.0R
WVE H/P(F/S)=  9/11 SWL H/P/D(F/S/D)=  8/ 70/11

CAPE LOOKOUT     2300            45      20/ 11/ 13 1034.8R
ONSLOW BAY 41036 NOT AVBL
ONSLOW BAY 41064 2208            50      50/ 14/ 21 1034.4S
ONSLOW BAY 41159 2243               68                N/A
WVE H/P(F/S)=  5/ 6 SWL H/P/D(F/S/D)=  2/ 90/11

MASNBO INL 41110 2259               57                N/A
WVE H/P(F/S)=  4/ 6 SWL H/P/D(F/S/D)=  2/110/11

WILM HARBR 41108 2247               56                N/A
WVE H/P(F/S)=  4/ 6

27SE WRITB 41037 2208            50 62   70/ 16/ 23 1033.7R
FRYING PAN 41013 2250            54 65   30/ 17/ 23 1033.3R
WVE H/P(F/S)=  7/ 8 SWL H/P/D(F/S/D)=  3/100/ 8

SUNST NRSH 41024 NOT AVBL
CAPRS NRSH 41029 2208            55      70/ 19/ 25 1032.1R
EDISTO     41004 2250            61 71   40/ 23/ 29 1030.6R
WVE H/P(F/S)=  7/ 7 SWL H/P/D(F/S/D)=  2/ 70/ 9



..........OFFSHORE BUOYS BEYOND 100 NM OFFSHORE...........
.....IN A TRIANGLE---HAT TO BERMUDA TO BAHAMAS TO HAT.....


STATION/POSITION TIME  SKY/WX   TEMP    WIND        PRES    VSBY
                                AIR SEA DIR/SP/G
                 (UTC)          (F)     (DEG/KT/KT) (MB)    (MI)
150E HAT   41001 NOT AVBL
W BERMUDA  41048 2250            59 68   30/ 19/ 23 1028.8R
WVE H/P(F/S)= 10/11 SWL H/P/D(F/S/D)=  7/360/11

ATLANTIC S 41049 2250            71 72   30/ 16/ 19 1020.7R
WVE H/P(F/S)=  4/11 SWL H/P/D(F/S/D)=  3/ 10/11

E BAHAMAS  41046 NOT AVBL
NE BAHAMAS 41047 2300            67 72   40/ 25/ 33 1023.9
120E CANVRL41010 NOT AVBL

END




USA.gov is the U.S. government's official web portal to all federal, state and local government web resources and services.